map of ANE home
ANE - Airport
Location
City:  Angers, Pays de la Loire, France
Name:Marce
ICAO:LFJR
IATA:ANE

Details
Type:Airport (Aerodrome, Airfield)
Use:Public/Civil
Latitude:4733'37"N (47.560211)
Longitude:018'44"W (-0.312127)
Elevation:194 ft (59 m)
Variation:0.15E (WMM2015v2 magnetic declination)
0.17 annual change
Runways:2
Longest:5906 × 148 ft (1800 × 45 m)

Time
Time Zone:UTC+1 (DST+2)
Local Time:

Weather
METAR:LFJR 041400Z AUTO 15010KT 9999 -RA FEW007/// BKN011/// BKN027/// ///TCU 03/02 Q1024 TEMPO 3000 RA BKN006

Related Locations
Nearby:
Farthest:CHT: 12114 mi / 19496 km
Waitangi [Tuuta], CIT, NZ

Find:

   beyond  
but within

Other Information
Maps:
NOTAMs:
Links:
Sources:

  
  • flag of France
  • flag of Pays de la Loire
  

Sectional Chart

Flight Planning
at skyvector.com

Satellite Image

Google Maps Satellite view

 

Copyright © 2004-2019 Karl L. Swartz. All rights reserved.
The Great Circle Mapper name and logo are trademarks of the Great Circle Mapper.
All other trademarks mentioned herein belong to their respective owners.
Please see credits for attibutions and further copyright information.

  Follow gcmap on Facebook Follow gcmap on Twitter GCmap on LinkedIn

hCard Microformat

Geo Microformat